Location: Newark
(55.4390°N, 25.0170°E)
Time: 08:21:59
(UTC+00:00)

Envisat - Pass Details

Date: 01 October 2022
Orbit: 763 x 765 km, 98.2° (Epoch: 02 December)

Event Time Altitude Azimuth Distance (km) Brightness Sun altitude
Rises 03:29:11 0° 13° (NNE) 3,249 6.5 -8.3°
Reaches altitude 10° 03:31:32 10° 10° (N) 2,318 5.7 -8.0°
Maximum altitude 03:36:33 59° 292° (WNW) 884 3.1 -7.3°
Drops below altitude 10° 03:41:31 10° 214° (SW) 2,302 5.1 -6.6°
Sets 03:43:51 0° 211° (SSW) 3,224 5.9 -6.3°
